Weather History for GMMZ - April, 2014

Change the Weather History Date:

Monday, April 28, 2014

  Actual Average Record
Temperature  
Mean Temperature 75 °F -  
Max Temperature 92 °F 84 °F - ()
Min Temperature 58 °F 57 °F - ()
Cooling Degree Days 10    
Growing Degree Days 25 (Base 50)    
Moisture  
Dew Point 23 °F    
Average Humidity 14    
Maximum Humidity 28    
Minimum Humidity 4    
Precipitation  
Precipitation 0.00 in 0.01 in - ()
Sea Level Pressure  
Sea Level Pressure 30.02 in    
Wind  
Wind Speed 5 mph ()    
Max Wind Speed 15 mph    
Max Gust Speed 25 mph    
Visibility 10.7 miles    
Events      
T = Trace of Precipitation, MM = Missing Value Source: Averaged Metar Reports

Daily Weather History Graph

Daily Weather History Graph

Search for Another Location

Airport or City:

Trip Planner

Search our weather history database for the weather conditions in past years. The results will help you decide how hot, cold, wet, or windy it might be!

Date:

Astronomy

Apr. 28, 2014 Rise Set
Actual Time 6:46 AM WEST 8:04 PM WEST
Civil Twilight 6:20 AM WEST 8:29 PM WEST
Nautical Twilight 5:50 AM WEST 9:00 PM WEST
Astronomical Twilight 5:19 AM WEST 9:31 PM WEST
Moon 6:10 AM WEST (4/28) 7:30 PM WEST (4/28)
Length of Visible Light 14h 08m
Length of Day
13h 17m
Waning Crescent, 1% of the Moon is Illuminated
Apr 28
Waning Crescent
Apr 29
New
May 7
First Quarter
May 14
Full
May 21
Last Quarter

Hourly Weather History & Observations

Time (WEST) Temp. Dew Point Humidity Pressure Visibility Wind Dir Wind Speed Gust Speed Precip Events Conditions
12:00 AM 73.4 °F 26.6 °F 18% 30.09 in - Variable 2.3 mph - N/A   Clear
1:00 AM 74 °F 18 °F 5%  in 12 mi WSW 5.8 mph - -  
1:00 AM 75.2 °F 19.4 °F 12% 30.09 in - WSW 5.8 mph - N/A   Clear
2:00 AM 66.2 °F 28.4 °F 24% 30.06 in - Variable 1.2 mph - N/A   Clear
3:00 AM 64.4 °F 30.2 °F 28% 30.04 in - Variable 3.5 mph - N/A   Clear
4:00 AM 62.6 °F 23.0 °F 22% 30.04 in - Variable 2.3 mph - N/A   Clear
5:00 AM 62.6 °F 23.0 °F 22% 30.04 in - Variable 2.3 mph - N/A   Clear
6:00 AM 64.4 °F 23.0 °F 21% 30.04 in - Variable 3.5 mph - N/A   Clear
7:00 AM 59 °F 22 °F 13%  in 12 mi WNW 4.6 mph - -  
7:00 AM 59.0 °F 21.2 °F 23% 30.04 in - Variable 3.5 mph - N/A   Clear
8:00 AM 60.8 °F 24.8 °F 25% 30.06 in - Variable 1.2 mph - N/A   Clear
9:00 AM 68.0 °F 24.8 °F 20% 30.06 in - Calm Calm - N/A   Clear
10:00 AM 72 °F 27 °F 10%  in 12 mi East 2.3 mph - -  
10:00 AM 71.6 °F 26.6 °F 19% 30.06 in - Variable 2.3 mph - N/A   Clear
11:00 AM 77.0 °F 26.6 °F 16% 30.06 in - Variable 2.3 mph - N/A   Clear
12:00 PM 82.4 °F 24.8 °F 12% 30.06 in - East 4.6 mph - N/A   Clear
1:00 PM 85 °F 17 °F 4%  in 12 mi NW 2.3 mph - -  
1:00 PM 86.0 °F 17.6 °F 8% 30.04 in - North 4.6 mph - N/A   Clear
2:00 PM 89.6 °F 14.0 °F 6% 30.01 in - Variable 9.2 mph - N/A   Clear
3:00 PM 89.6 °F 14.0 °F 6% 29.98 in - SSE 5.8 mph - N/A   Clear
4:00 PM 91 °F 53 °F 18%  in 12 mi SSW 15.0 mph - -   Scattered Clouds
4:00 PM 91.4 °F 10.4 °F 5% 29.95 in - SSW 15.0 mph - N/A   Clear
5:00 PM 91.4 °F 14.0 °F 6% 29.92 in 6.2 mi South 13.8 mph - N/A   Partly Cloudy
6:00 PM 91.4 °F 10.4 °F 5% 29.92 in 6.2 mi West 13.8 mph 25.3 mph N/A   Partly Cloudy
7:00 PM 89 °F 5 °F 4%  in 12 mi West 15.0 mph - -   Scattered Clouds
8:00 PM 86.0 °F 21.2 °F 9% 29.95 in - WNW 11.5 mph - N/A   Clear
9:00 PM 80.6 °F 28.4 °F 15% 29.98 in - WNW 13.8 mph - N/A   Clear
10:00 PM 78 °F 29 °F 9%  in 12 mi West 6.9 mph - -  
10:00 PM 77.0 °F 28.4 °F 17% 30.01 in - West 5.8 mph - N/A   Clear
11:00 PM 77.0 °F 28.4 °F 17% 30.04 in - WSW 8.1 mph - N/A   Clear